Terminal Aerodrome Forecast
Issued by NWS Omaha/Valley, NE

Home | Current Version | Previous Version | Text Only | Print | Product List | Glossary Off
Versions: 1 2 3 4 5 6 7 8 9 10 11 12 13 14 15 16 17 18 19 20 21 22 23 24 25 26 27 28 29 30 31 32 33 34 35 36 37 38

000
FTUS43 KOAX 181124
TAFOFK
TAF
KOFK 181124Z 1812/1912 13005KT 3SM -SN BR SCT015 OVC035
     FM181300 16005KT P6SM OVC020
     FM190800 19006KT 5SM BR OVC011=

USA.gov is the U.S. government's official web portal to all federal, state and local government web resources and services.